Regional Weather Roundup
Issued by NWS

Home | Current Version | Previous Version | Text Only | Print | Product List | Glossary Off
Versions: 1 2 3 4 5 6 7 8 9 10 11 12 13 14 15 16 17 18 19 20 21 22 23 24 25 26 27 28 29 30 31 32 33 34 35 36 37 38 39 40 41 42 43 44 45 46 47 48 49 50

630
ASUS44 KMEG 041810
RWRTN
TENNESSEE HOURLY STATE WEATHER ROUNDUP
NATIONAL WEATHER SERVICE MEMPHIS TN
100 PM CDT WED MAY 04 2016

TNZ002-004-019-021-049-052-054-088>092-041900-
WEST TENNESSEE

CITY           SKY/WX    TMP DP  RH WIND       PRES   REMARKS
MEMPHIS INTL   MOSUNNY   75  53  46 W14G23    29.81F
NWS MEMPHIS      N/A     72 N/A N/A MISG        N/A
JACKSON        PTSUNNY   74  50  42 W13G28    29.76F
DYERSBURG      CLOUDY    70  48  46 W13G25    29.76S
UNION CITY     MOSUNNY   66  48  52 NW14      29.76S
LEXINGTON      MOSUNNY   73  46  38 W17       29.74F
$$

TNZ008-025-027-028-033-062-065-066-041900-
NORTH MIDDLE TENNESSEE

CITY           SKY/WX    TMP DP  RH WIND       PRES   REMARKS
NASHVILLE      CLOUDY    68  44  42 W7G20     29.72F
CLARKSVILLE    LGT RAIN  59  52  77 W5        29.74F
SMYRNA         MOSUNNY   71  46  40 W13       29.73F
COOKEVILLE     MOSUNNY   70  46  43 SW7       29.73F
CROSSVILLE     SUNNY     64  40  41 W7G17     29.76F
$$

TNZ061-075-076-078-094-096-097-041900-
SOUTH MIDDLE TENNESSEE

CITY           SKY/WX    TMP DP  RH WIND       PRES   REMARKS
FAYETTEVILLE   MOSUNNY   68  45  42 SW12G17   29.78F
TULLAHOMA      PTSUNNY   66  43  42 W9        29.78F
WINCHESTER     MOSUNNY   66  43  42 VRB5      29.78F
MCMINNVILLE    MOSUNNY   70  48  46 SW13      29.75F
COLUMBIA       MOSUNNY   72  50  46 W9        29.73F
SHELBYVILLE    PTSUNNY   73  48  40 W12       29.76F
$$

TNZ017-018-042-046-047-041900-
NORTHEAST TENNESSEE

CITY           SKY/WX    TMP DP  RH WIND       PRES   REMARKS
TRI CITIES     PTSUNNY   62  41  46 SW9       29.74F
$$

TNZ012-013-036-069-073-074-041900-
CENTRAL EAST TENNESSEE

CITY           SKY/WX    TMP DP  RH WIND       PRES   REMARKS
KNOXVILLE      PTSUNNY   63  41  44 SW9       29.75F
OAK RIDGE      PTSUNNY   67  40  37 SW7       29.75F
GATLINBURG     MOCLDY    63  39  42 W5        29.75F
MORRISTOWN     MOCLDY    63  39  42 W6G13     29.74F
$$

TNZ083-085-099-041900-
SOUTHEAST TENNESSEE

CITY           SKY/WX    TMP DP  RH WIND       PRES   REMARKS
CHATTANOOGA    MOSUNNY   69  37  30 VRB3      29.78F
$$

SKY/WX REPORTED AS FAIR MEANS FEW OR NO CLOUDS BELOW
12 THOUSAND FEET.





USA.gov is the U.S. government's official web portal to all federal, state and local government web resources and services.